Wind_Speed
18 17 17 18 19 19 18 18 18 17 16 15 14 15 15 15 14 13 12 11 10 10 9 10 11 9 7 6 6 6 6 6 6 6 6 6 6 5 5 5 5 5
19 18 17 18 19 19 18 18 17 17 17 16 15 14 14 15 14 13 12 12 11 11 10 10 11 10 9 8 7 7 7 7 7 7 7 7 6 6 6 6 6 6
20 19 19 19 19 19 18 17 17 16 16 16 16 15 15 15 15 14 13 12 12 11 10 11 11 11 10 9 9 8 8 8 7 7 7 7 7 7 7 7 7 6
20 20 20 19 19 18 17 17 17 17 17 17 17 16 16 16 15 15 15 14 13 12 11 12 12 11 11 10 10 10 10 9 8 8 9 8 8 8 8 8 8 7
21 20 20 19 18 17 17 18 18 17 17 17 17 16 16 16 16 16 16 16 15 13 12 13 13 12 12 11 11 11 11 11 11 10 10 10 9 8 8 7 7 7
22 21 21 20 18 17 17 18 18 18 18 17 16 16 17 17 17 17 16 16 16 15 14 14 14 14 14 14 13 13 13 13 12 11 11 11 9 8 7 7 7 7
23 23 22 22 20 18 17 17 18 18 18 17 17 17 17 18 18 17 17 17 16 16 15 15 15 15 15 15 15 14 14 13 13 12 12 11 10 9 7 7 8 9
24 23 22 22 21 20 19 18 18 19 18 18 18 18 18 18 18 17 17 17 17 17 17 16 15 15 15 15 16 15 14 13 13 13 13 11 10 10 9 8 8 9
24 23 22 22 21 21 20 19 18 18 18 18 18 17 18 18 18 17 17 17 17 17 17 17 16 15 15 15 15 15 14 14 13 12 12 11 11 11 11 9 9 10
24 23 22 22 22 21 20 19 18 18 17 17 17 16 16 17 17 17 16 16 17 18 18 17 16 16 16 16 15 15 15 15 14 13 12 12 11 11 11 11 10 10
25 24 23 22 22 22 21 20 19 19 18 17 16 16 16 16 16 17 17 17 18 17 18 18 17 17 17 17 16 16 16 15 14 14 13 13 12 12 12 12 11 11
25 25 24 24 23 23 22 21 21 20 19 18 17 17 16 16 16 17 17 18 18 17 18 18 18 18 18 17 17 17 17 16 15 14 14 14 13 13 13 13 13 13
27 27 26 25 24 23 22 22 22 21 20 19 18 17 17 18 18 18 18 18 17 17 18 18 18 18 18 17 17 16 17 17 16 16 15 15 15 14 13 13 14 15
28 27 27 26 25 24 22 22 22 22 21 20 19 18 18 18 18 18 18 18 18 18 18 18 18 19 18 18 17 17 17 17 17 17 17 16 15 15 14 14 14 15
28 27 27 26 25 24 23 22 22 22 22 21 20 19 19 18 18 19 19 20 19 19 19 19 19 19 18 18 18 18 18 18 18 18 17 17 17 16 15 14 14 14
27 27 27 27 26 25 24 23 22 22 22 22 22 21 20 20 19 19 20 21 21 20 20 20 20 20 19 18 18 18 19 19 18 18 17 17 17 17 17 16 15 14
27 26 26 26 26 26 25 23 22 23 23 23 23 23 22 22 21 21 21 21 21 21 21 21 21 21 20 19 19 19 20 20 19 18 18 17 18 18 18 18 16 16
24 25 25 25 25 26 26 25 23 23 23 23 24 24 23 22 21 21 21 21 21 21 22 22 22 21 21 21 21 20 21 21 21 20 19 19 19 19 19 19 18 17
23 22 23 24 25 25 25 25 25 25 24 24 24 23 23 23 22 21 21 21 21 22 22 22 22 21 22 22 22 22 21 21 22 22 21 21 21 21 21 21 20 19
19 21 22 23 24 24 25 25 25 26 25 25 25 24 24 24 23 22 22 22 22 23 23 23 22 22 23 23 22 22 22 22 22 22 22 22 22 22 22 22 21 21
15 18 22 24 24 23 23 23 25 26 26 26 25 24 24 24 24 23 23 22 22 22 22 23 23 23 23 23 22 22 22 22 23 23 23 22 22 22 22 22 22 21
17 18 19 20 20 19 17 17 18 21 24 25 25 23 22 22 22 22 22 22 22 21 20 21 22 23 23 23 22 22 22 23 23 23 23 23 23 23 22 22 22 21
18 18 18 17 16 17 18 17 16 15 17 18 20 22 21 20 19 19 20 21 21 20 19 19 20 21 21 21 21 20 20 21 21 21 22 22 23 23 22 21 20 19
16 17 17 17 16 17 19 21 21 19 17 15 15 17 19 18 17 17 16 16 16 16 16 16 16 17 17 17 18 18 18 18 17 17 17 19 20 20 19 17 15 15
13 14 13 14 17 19 19 18 18 17 18 16 14 15 16 15 14 14 14 12 11 11 11 11 11 12 13 13 13 14 14 14 13 12 13 14 15 16 16 15 14 15
10 9 8 11 17 18 14 13 14 14 15 15 13 13 14 12 11 11 10 8 7 6 7 8 8 9 9 9 9 9 9 10 10 10 9 9 11 14 15 14 14 15
Wind_Direction
224 228 231 229 228 230 231 230 229 227 225 224 225 225 225 226 223 224 233 237 242 253 255 246 240 241 246 248 254 262 269 280 286 289 295 299 302 303 311 322 329 341
226 231 233 231 230 231 232 232 231 230 227 227 230 234 235 233 230 232 237 239 244 253 253 245 238 238 243 246 252 260 268 278 280 279 285 290 294 298 306 313 314 320
227 229 231 232 231 231 232 232 232 233 232 231 234 239 240 236 235 238 241 244 248 252 250 241 234 235 242 245 249 256 263 271 274 271 274 278 284 289 297 308 311 307
226 227 228 229 230 231 233 234 234 235 234 235 238 241 240 237 237 240 244 247 249 250 246 239 233 235 242 245 247 252 259 266 268 265 266 269 275 283 290 298 304 299
226 227 226 226 227 231 233 236 238 237 236 238 240 240 238 238 240 242 246 246 246 247 244 236 233 237 242 245 248 253 259 265 266 262 261 264 268 275 281 287 294 292
225 227 226 227 230 233 234 237 239 238 238 239 241 240 239 240 243 246 248 246 244 246 243 237 239 244 248 249 251 256 263 268 266 260 258 263 265 265 269 277 285 286
226 227 228 230 233 236 238 239 239 239 240 241 243 242 241 242 245 247 248 246 246 246 244 242 247 251 252 252 254 257 264 269 265 259 259 265 268 265 266 276 285 287
227 229 230 232 234 236 239 240 240 240 241 242 244 244 244 244 246 248 247 245 245 246 245 247 252 253 251 251 254 257 262 266 263 258 260 267 269 266 267 275 284 286
227 230 231 233 233 235 237 239 239 240 242 244 245 245 245 245 246 246 245 244 245 245 245 248 252 251 248 249 252 254 259 262 259 256 258 263 266 266 266 272 278 280
225 228 229 231 231 233 235 237 238 239 243 245 245 246 245 244 243 243 242 244 246 247 246 249 251 250 249 250 252 254 257 260 258 255 256 259 262 266 266 267 272 275
223 224 226 228 229 231 234 237 238 241 245 245 244 245 246 244 242 241 242 245 248 250 250 250 250 251 252 253 254 255 256 258 258 257 257 259 262 268 269 265 264 268
221 222 224 226 228 230 234 237 239 241 244 245 245 248 249 247 245 244 245 247 250 252 252 250 250 252 254 255 256 256 255 255 258 258 259 261 264 268 270 267 264 266
221 223 225 227 229 231 235 239 241 242 243 243 245 251 251 249 248 246 246 248 251 252 251 251 252 253 255 256 257 255 253 254 257 260 262 263 266 269 271 271 270 270
222 224 226 228 231 233 236 239 241 242 241 241 245 250 251 249 248 248 248 249 251 252 252 252 255 256 255 255 254 253 253 255 259 262 263 263 264 267 272 274 274 271
223 224 226 229 231 233 235 238 241 242 241 241 244 248 249 249 251 252 251 252 253 254 253 252 254 255 254 253 253 252 253 257 261 262 261 261 261 263 268 273 274 273
224 225 226 228 229 232 235 237 240 241 242 243 244 246 249 251 254 255 254 256 258 258 257 253 252 253 253 254 255 255 256 258 260 261 259 260 262 263 265 269 272 276
225 226 227 228 230 232 235 237 241 243 244 245 246 248 251 253 255 256 256 258 261 262 261 258 256 255 255 256 258 260 260 259 258 259 260 261 263 264 265 269 271 275
225 227 228 230 233 235 237 238 242 245 247 248 248 249 251 254 255 256 257 259 262 263 262 260 261 262 261 262 263 263 262 259 257 258 260 262 263 263 265 268 271 274
225 227 231 234 236 237 240 241 242 246 249 250 250 250 251 253 254 256 258 260 261 261 261 261 263 266 267 266 266 264 262 258 256 257 260 262 264 264 265 267 269 270
226 225 228 234 238 239 242 242 243 246 249 250 250 251 253 255 257 259 260 262 262 259 259 260 261 264 266 266 264 263 261 258 255 257 260 262 264 265 267 268 268 268
252 244 234 231 235 240 242 243 246 248 250 252 253 253 255 257 259 260 259 260 259 258 257 256 255 257 259 260 260 260 259 257 256 258 260 263 264 265 268 270 270 268
251 265 259 241 229 230 234 238 247 253 253 252 251 251 252 253 253 253 255 255 254 254 253 251 250 251 251 252 254 255 256 256 257 259 261 262 263 265 268 270 271 269
231 248 264 258 234 221 223 229 239 252 258 257 252 247 243 243 245 245 248 252 252 251 249 246 247 248 248 248 249 251 253 255 258 261 263 264 265 266 267 268 268 265
227 229 243 253 247 236 234 235 236 239 244 251 257 251 240 233 234 236 239 244 248 248 247 244 244 246 246 248 249 251 254 257 259 263 266 267 266 263 261 259 255 249
231 226 228 240 248 246 242 239 237 236 237 240 250 258 250 232 224 227 229 230 234 239 240 236 235 237 240 243 244 247 251 255 257 260 265 268 263 255 250 242 233 231
236 235 231 236 243 243 233 227 234 239 240 239 241 252 256 246 232 229 225 218 214 216 215 214 215 221 229 233 235 238 244 249 253 255 263 269 260 250 243 232 225 230
Height
852 854 855 856 857 858 859 860 861 862 864 864 865 866 867 867 869 870 870 871 872 872 873 873 874 875 875 876 876 877 877 877 877 878 878 878 878 878 878 878 877 877
851 853 854 855 856 857 858 859 860 861 863 864 864 865 866 867 868 869 869 870 871 871 872 872 873 874 874 875 875 876 876 876 877 877 877 877 878 878 877 877 877 877
850 852 853 854 855 856 857 859 860 861 862 863 863 864 865 866 867 868 868 869 870 870 871 871 872 873 873 874 874 875 875 876 876 876 877 877 877 877 877 877 876 876
849 850 851 853 854 855 857 858 859 860 861 862 862 863 864 865 866 867 867 868 869 869 870 871 871 872 873 873 874 874 874 875 875 875 876 876 876 876 876 876 876 876
848 849 850 852 853 854 855 856 857 858 859 860 861 862 863 864 865 865 866 867 868 868 869 869 870 871 872 872 872 873 873 873 874 874 874 874 875 875 875 875 874 874
846 848 849 851 852 853 854 855 856 857 858 859 860 861 862 863 864 864 865 866 866 867 868 868 869 870 870 871 871 872 872 872 872 873 873 873 873 873 873 873 873 873
844 846 847 849 850 851 852 853 854 855 856 858 858 859 860 861 862 863 864 865 865 866 867 867 868 868 869 870 870 870 871 871 871 871 871 871 872 872 872 872 872 872
842 844 845 847 848 850 851 852 853 854 855 856 857 858 859 860 861 861 862 863 864 865 865 866 867 867 868 868 869 869 870 870 870 870 870 870 870 871 871 871 871 870
840 842 843 845 846 848 849 850 852 853 854 855 855 857 858 858 859 860 861 862 862 863 864 865 865 866 866 867 867 868 868 869 869 869 869 869 869 869 870 870 870 870
838 840 841 843 844 846 847 849 850 851 853 853 854 855 856 857 858 859 860 860 861 862 862 863 864 864 865 866 866 866 867 867 868 868 868 868 868 869 869 869 869 869
836 838 839 841 842 844 846 847 849 850 851 852 853 854 854 855 856 857 858 859 859 860 861 861 862 863 863 864 864 865 865 866 866 867 867 867 868 868 868 868 868 868
834 836 837 839 840 842 844 845 847 848 849 850 851 852 853 854 855 855 856 857 857 858 859 859 860 861 861 862 863 863 864 864 865 865 866 866 867 867 867 867 867 866
832 834 835 837 839 840 842 843 845 846 847 849 850 850 851 852 852 853 854 855 855 856 857 857 858 859 859 860 861 861 862 863 863 864 864 865 865 865 865 866 865 865
830 832 833 835 837 839 840 842 843 844 845 847 848 848 849 850 850 851 852 853 853 854 855 855 856 856 857 858 859 859 860 861 861 862 862 863 863 864 864 864 864 863
828 830 832 834 835 837 838 840 841 842 843 844 846 846 847 848 849 849 850 851 851 852 853 853 854 854 855 856 857 857 858 859 859 860 860 860 861 861 862 862 862 862
826 828 830 832 834 835 836 838 839 840 841 842 843 844 845 846 847 847 848 849 849 850 851 851 852 852 853 854 854 855 856 856 857 857 858 858 859 859 860 860 860 860
825 827 830 831 832 834 835 836 838 838 839 840 841 842 843 844 844 845 846 847 847 848 848 849 850 850 851 852 852 853 854 854 855 855 855 856 857 857 857 858 858 858
825 826 828 830 831 833 834 835 836 837 838 839 839 840 841 842 843 843 844 845 845 846 846 847 848 848 849 850 851 851 852 852 852 853 853 854 854 855 855 856 856 856
823 825 827 828 829 831 832 833 835 835 836 837 837 838 839 840 840 841 842 843 843 844 844 845 846 847 847 848 849 849 850 850 850 851 851 851 852 852 853 853 854 854
823 823 824 826 827 828 830 831 832 833 834 835 835 836 837 837 838 839 839 840 841 841 842 843 843 844 845 846 846 847 848 848 849 849 849 849 849 850 850 851 852 852
825 826 824 823 824 826 828 829 831 831 832 833 834 834 835 835 836 836 837 837 838 839 839 840 841 841 842 843 844 844 845 846 847 847 847 847 847 848 848 849 849 850
824 828 827 824 823 823 825 827 829 830 831 831 832 832 833 833 833 833 834 835 835 836 837 838 838 839 839 840 841 842 843 843 844 845 845 845 845 846 846 847 847 847
819 824 828 828 825 822 823 824 826 828 830 832 832 831 830 831 831 831 832 832 833 834 835 835 836 837 837 838 838 839 840 841 842 843 843 844 844 844 844 844 844 845
817 819 823 827 827 823 821 822 823 824 827 830 833 832 830 829 829 829 830 830 831 832 833 834 835 835 835 836 836 837 838 838 839 840 841 842 842 842 842 842 842 842
817 817 818 823 827 825 821 821 823 824 825 827 831 834 832 829 827 828 828 828 829 830 831 832 833 833 834 834 834 835 835 836 837 838 839 839 840 840 840 840 840 839
815 815 816 820 824 824 821 821 823 825 826 827 829 832 833 831 828 827 827 828 829 830 830 830 831 831 832 832 832 832 833 834 835 836 837 838 839 839 839 839 838 838